Starlink 36190

operational
NORAD ID: 67029 Int'l Des: 2025-293 Owner: SPXS Country: US Constellation: starlink
LEOCIRCULAR

Starlink 36190について

説明を読み込み中...

リアルタイム位置

3D地球を読み込み中...

次回通過

高度履歴

Altitude vs Time

uPlot chart will show altitude changes over time

軌道要素

1 67029C 25293AC 25346.09979167 .00120490 00000+0 15955-3 0 3462
2 67029 69.9970 325.9379 0005400 263.8195 180.2752 16.06356765 18
Epoch: Dec 12, 2025 • Age: 58 hours

現在のステータス

高度 269.0 km
速度 7.75 km/s
衛星直下点 64.28°N, 139.6°W
打ち上げ日 Dec 10, 2025
運用期間 3 days
タイプ internet

技術仕様

分類 Payload
質量 575.00 kg
乾燥質量 530.00 kg
総質量 575.00 kg
長さ 0.30 m
直径 4.10 m
スパン 29.00 m
形状 Box + pan
製造者 SPXS
バスタイプ Starlink V2MO
フェーズステータス In Orbit
所有者/国 SPXS/US

大規模コンステレーション

Loading constellations...